CAPE
1450 1427 1230 1198 1072 1232 1344 1212 1393 1419 1191 1395 1708 1615 1566 1550 1630 1559 1397 1150 856 1345 1112 1084 1026 1099 625 282 83 130 133 124 82 61 477 2054 1549 1420 1070 719 173 165 0
1617 1517 1436 1362 1224 1021 1061 1087 1410 1643 1302 1325 1340 1166 1149 1387 1328 1394 1246 693 842 793 844 1363 1076 935 1291 1463 734 400 35 93 210 686 313 264 1042 1048 1546 1452 1123 504 0
1438 1547 1466 1318 1236 964 1130 1180 1368 1543 1467 1155 1205 1316 1486 1313 1392 1404 1180 1160 967 920 1066 1156 983 841 897 830 1020 996 931 826 910 915 526 762 854 922 1270 1463 1255 992 440
1316 1294 1386 1307 1322 1210 1059 1251 1246 1591 1516 1389 1203 1043 1308 1298 1358 1200 1147 1113 1171 1242 1203 1355 1136 951 1145 1052 977 1185 1161 881 861 684 625 589 831 1060 913 1052 1095 1078 360
1254 1493 1505 1332 1404 1482 1371 1433 1419 1457 1523 1446 1334 1210 968 1007 834 1122 1136 1053 1030 1286 1179 1281 991 1016 907 867 897 870 824 854 1121 1298 1105 1220 855 997 1126 654 797 866 519
1023 1296 1565 1468 1236 1346 1636 1317 1498 1483 1456 1304 1275 1284 1124 1123 631 377 600 1160 1305 1072 1090 1113 1406 1180 1083 847 723 645 551 574 1013 1050 978 1107 1292 1342 996 848 505 523 550
629 1176 1539 1594 1840 1805 1962 1801 1521 1464 1349 1328 1396 1279 1314 1500 942 581 317 440 672 931 954 1103 1116 776 862 1149 950 707 536 490 447 773 917 1107 1094 1115 1205 1189 907 765 690
462 428 660 1090 1453 1449 1374 1424 1587 1295 1052 1495 1286 1273 1247 1195 885 736 667 966 912 945 1059 1065 1036 1179 1335 1380 1381 1149 1099 1046 591 281 638 620 780 605 747 738 797 615 279
0 26 408 333 617 620 781 999 1488 1367 1276 1372 1549 1407 1292 1377 299 336 608 1111 869 894 1119 1218 1240 1214 690 364 694 441 621 502 0 0 0 0 0 0 0 0 22 214 223
1 0 35 76 272 401 574 685 581 715 486 284 348 537 195 666 0 0 87 920 723 580 924 1166 237 396 65 41 246 438 365 619 113 3 0 0 0 0 0 0 0 0 0
528 165 64 91 132 132 138 325 224 65 4 8 32 1 2 0 1 0 0 15 360 604 763 870 805 0 0 0 0 197 238 265 6 3 2 1 0 0 1 0 0 0 0
633 526 552 361 340 231 337 221 75 37 30 2 0 0 2 4 1 0 0 0 0 50 329 98 0 0 0 0 1 0 0 0 0 0 0 0 0 0 0 0 3 1 1
371 209 75 70 54 139 138 117 60 5 2 5 2 1 1 2 4 3 0 0 0 0 0 0 0 0 0 0 1 0 0 1 1 0 0 1 3 1 0 0 0 0 0
133 59 3 8 24 42 56 79 59 37 29 3 5 4 4 1 1 3 4 2 2 1 1 1 1 0 0 1 2 2 1 0 2 3 1 3 2 0 0 0 0 0 0
16 34 38 0 0 0 0 0 3 0 0 20 18 4 2 2 1 0 3 1 1 1 2 2 2 1 0 1 1 2 2 0 1 1 3 3 2 0 0 0 0 0 0
1 0 30 75 29 0 0 0 0 0 0 0 0 0 0 0 0 0 0 0 0 0 3 3 4 4 1 2 2 2 3 4 3 3 2 1 0 0 0 0 0 0 0
54 85 3 38 14 4 2 1 0 0 0 0 0 0 0 0 0 0 0 0 0 0 2 3 3 3 3 3 2 1 2 2 1 0 0 0 0 0 0 0 0 0 1
215 0 9 4 1 0 1 4 3 0 1 0 0 0 0 0 0 0 0 0 0 0 2 0 1 2 3 1 2 0 1 1 1 0 0 0 0 0 0 0 0 0 0
153 159 202 191 126 78 25 33 27 3 7 3 0 0 0 0 0 0 0 0 6 3 8 5 6 2 1 1 0 0 0 0 0 0 0 0 0 0 0 0 0 0 0
461 376 269 226 85 121 93 7 0 0 0 0 1 1 0 0 0 0 0 5 16 15 14 9 3 1 0 0 0 0 0 0 0 0 0 0 0 0 0 0 0 0 0
449 295 305 333 256 138 9 5 4 0 0 0 0 0 0 0 0 0 0 0 0 0 0 0 0 0 0 0 0 0 0 0 0 0 0 0 0 0 0 0 0 0 0
117 72 116 90 27 2 8 1 0 0 0 0 0 0 0 0 0 0 0 0 0 0 0 0 0 0 0 0 0 0 0 0 0 0 0 0 0 0 0 0 0 0 0
8 15 36 25 10 0 0 1 0 0 0 0 0 0 0 0 0 0 0 0 0 0 0 0 0 0 0 0 0 0 0 0 0 0 0 0 0 0 0 0 0 0 0
0 0 1 4 1 0 0 0 0 0 0 0 0 0 0 0 0 0 0 0 0 0 0 0 0 0 1 0 0 0 0 0 0 0 0 0 0 0 0 0 0 0 0
52 0 1 0 0 0 1 0 5 9 2 0 0 3 9 10 11 8 2 0 0 0 0 0 0 0 0 0 0 0 0 0 0 0 0 0 0 0 0 8 12 3 2
0 1 2 2 3 5 7 10 13 18 21 20 11 9 10 11 20 25 24 16 7 2 1 1 1 1 1 0 0 0 0 0 0 0 0 7 15 10 12 15 8 10 6
CIN
-2 -1 -1 -1 -1 -0 -1 -1 -4 -9 -7 -0 -5 -2 -3 -1 -1 -0 -0 -10 -17 -1 -1 -8 -5 -1 -3 -2 -2 -1 -2 -3 -2 -1 -10 -17 -22 -27 -8 -25 -41 -44 -0
-1 -3 -2 -4 -2 -2 -2 -2 -1 -0 -1 -2 -1 -3 -2 -1 -1 -2 -2 -1 -0 -1 -0 -2 -1 -2 -3 -1 -1 -6 -13 -9 -8 -2 -12 -18 -7 -5 -3 -0 -1 -1 -0
-4 -3 -2 -5 -4 -1 -2 -1 -0 -0 -0 -1 -1 -0 -1 -1 -0 -0 -0 -1 -1 -0 -1 -1 -8 -0 -5 -2 -5 -5 -4 -3 -4 -4 -10 -5 -11 -11 -4 -1 -0 -0 -3
-8 -1 -2 -1 -5 -5 -1 -0 -1 -1 -1 -0 -1 -0 -1 -0 -1 -1 -0 -1 -1 -2 -1 -1 -18 -1 -1 -3 -8 -8 -7 -15 -4 -13 -3 -3 -5 -6 -20 -9 -8 -8 -11
-5 -7 -5 -5 -3 -4 -0 -2 -1 -0 -1 -0 -1 -1 -1 -2 -2 -3 -3 -1 -0 -1 -1 -6 -9 -2 -4 -7 -6 -4 -7 -7 -5 -5 -6 -7 -13 -11 -7 -16 -7 -7 -19
-6 -2 -21 -16 -6 -7 -8 -10 -4 -4 -2 -4 -2 -1 -2 -1 -3 -5 -6 -2 -1 -2 -1 -1 -0 -1 -4 -9 -16 -25 -19 -13 -4 -1 -2 -2 -4 -2 -9 -14 -16 -16 -2
-8 -4 -4 -2 -0 -0 -0 -1 -4 -6 -10 -5 -2 -2 -1 -3 -4 -14 -41 -12 -1 -2 -3 -4 -1 -1 -1 -1 -9 -26 -50 -50 -53 -23 -6 -0 -3 -5 -0 -1 -3 -3 -1
-6 -6 -1 -1 -0 -1 -7 -4 -2 -11 -18 -7 -5 -3 -3 -2 -11 -15 -21 -6 -1 -1 -1 -1 -2 -1 -1 -11 -9 -1 -1 -1 -61 -101 -35 -49 -38 -58 -27 -1 -0 -0 -4
-0 -85 -0 -8 -0 -16 -22 -14 -0 -0 -0 -0 -0 -1 -1 -1 -109 -85 -50 -1 -1 -2 -1 -2 -0 -2 -26 -90 -28 -28 -18 -37 -0 -0 -0 -0 -0 -0 -0 -0 -48 -0 -0
-9 -0 -36 -40 -3 -15 -7 -0 -1 -0 -11 -29 -13 -1 -52 -3 -0 -0 -131 -3 -1 -1 -1 -4 -89 -69 -155 -164 -73 -32 -22 -7 -116 -46 -0 -0 -0 -0 -0 -0 -0 -0 -0
-1 -67 -101 -31 -7 -77 -58 -0 -0 -30 -89 -67 -33 -48 -0 -0 -0 -0 -0 -133 -8 -2 -0 -1 -10 -0 -0 -0 -0 -47 -65 -37 -24 -0 -0 -0 -0 -0 -0 -0 -0 -0 -0
-0 -0 -2 -3 -7 -28 -5 -20 -40 -27 -27 -15 -0 -0 -0 -0 -0 -0 -0 -0 -0 -75 -6 -44 -0 -0 -0 -0 -0 -0 -0 -0 -0 -0 -0 -0 -0 -0 -0 -0 -0 -0 -0
-17 -47 -101 -119 -139 -96 -79 -87 -99 -71 -10 -183 -136 -0 -0 -0 -0 -0 -0 -0 -0 -0 -0 -0 -0 -0 -0 -0 -0 -0 -0 -0 -0 -0 -0 -0 -0 -0 -0 -0 -0 -0 -0
-56 -104 -25 -212 -242 -172 -153 -82 -127 -142 -170 -34 -224 -0 -0 -0 -0 -0 -0 -0 -0 -0 -0 -0 -0 -0 -0 -0 -0 -0 -0 -0 -0 -0 -0 -0 -0 -0 -0 -0 -0 -0 -0
-69 -102 -66 -7 -0 -0 -0 -0 -136 -0 -0 -111 -260 -49 -0 -0 -0 -0 -0 -0 -0 -0 -0 -0 -0 -0 -0 -0 -0 -0 -0 -0 -0 -0 -0 -0 -0 -0 -0 -0 -0 -0 -0
-0 -0 -48 -51 -47 -0 -0 -0 -0 -0 -0 -0 -0 -0 -0 -0 -0 -0 -0 -0 -0 -0 -0 -0 -0 -0 -0 -0 -0 -0 -0 -0 -0 -0 -0 -0 -0 -0 -0 -0 -0 -0 -0
-29 -21 -0 -34 -58 -18 -0 -0 -0 -0 -0 -0 -0 -0 -0 -0 -0 -0 -0 -0 -0 -0 -0 -0 -0 -0 -0 -0 -0 -0 -0 -0 -0 -0 -0 -0 -0 -0 -0 -0 -0 -0 -2
-6 -0 -89 -69 -81 -21 -43 -37 -1 -0 -0 -0 -0 -0 -0 -0 -0 -0 -0 -0 -0 -0 -0 -0 -0 -0 -0 -0 -0 -0 -0 -0 -0 -0 -0 -0 -0 -0 -0 -0 -0 -0 -0
-43 -41 -19 -13 -22 -18 -44 -42 -34 -1 -2 -0 -0 -0 -0 -0 -0 -0 -0 -0 -2 -2 -0 -3 -1 -5 -2 -0 -0 -0 -0 -0 -0 -0 -0 -0 -0 -0 -0 -0 -0 -0 -0
-1 -9 -5 -9 -53 -17 -12 -9 -0 -0 -1 -8 -9 -1 -0 -0 -0 -0 -0 -2 -2 -2 -1 -1 -1 -0 -0 -0 -0 -0 -0 -0 -0 -0 -0 -0 -0 -0 -0 -0 -0 -0 -0
-1 -18 -22 -13 -20 -16 -1 -2 -2 -0 -0 -0 -0 -0 -0 -0 -0 -0 -0 -0 -0 -0 -0 -0 -0 -0 -0 -0 -0 -0 -0 -0 -0 -0 -0 -0 -0 -0 -0 -0 -0 -0 -0
-71 -102 -47 -60 -127 -119 -2 -1 -0 -0 -0 -0 -0 -0 -0 -0 -0 -0 -0 -0 -0 -0 -0 -0 -0 -0 -0 -0 -0 -0 -0 -0 -0 -0 -0 -0 -0 -0 -0 -0 -0 -0 -0
-231 -211 -144 -153 -190 -0 -0 -1 -0 -0 -0 -0 -0 -0 -0 -0 -0 -0 -0 -0 -0 -0 -0 -0 -0 -0 -0 -0 -0 -0 -0 -0 -0 -0 -0 -0 -0 -0 -0 -0 -0 -0 -0
-0 -0 -35 -30 -32 -0 -0 -0 -0 -0 -0 -0 -0 -0 -0 -0 -0 -0 -0 -0 -0 -0 -0 -0 -0 -0 -1 -0 -0 -0 -0 -0 -0 -0 -0 -0 -0 -0 -0 -0 -0 -0 -0
-129 -0 -1 -0 -0 -0 -0 -0 -2 -3 -1 -0 -0 -2 -1 -2 -1 -2 -4 -0 -0 -0 -0 -0 -0 -0 -0 -0 -0 -0 -0 -0 -0 -0 -0 -0 -0 -0 -0 -2 -1 -2 -3
-0 -1 -3 -3 -2 -2 -2 -2 -3 -4 -4 -2 -2 -1 -1 -4 -3 -2 -3 -3 -2 -1 -2 -2 -1 -1 -0 -0 -0 -0 -0 -0 -0 -0 -0 -2 -1 -0 -3 -2 -1 -2 -7
Wind_Speed
7 6 5 6 7 9 16 23 27 30 21 18 24 23 25 26 21 22 26 30 20 19 25 27 25 22 24 29 29 30 27 21 9 4 23 20 20 22 20 19 11 12 10
10 10 10 10 6 9 9 24 27 26 28 28 20 23 25 26 25 25 25 26 23 23 22 27 26 24 16 18 25 28 31 32 28 28 30 30 20 19 17 16 16 12 8
13 15 15 11 13 14 8 11 16 24 29 31 17 20 24 24 21 20 21 22 24 28 26 27 28 21 25 24 27 31 29 19 12 14 22 31 21 17 18 16 14 13 16
16 18 20 14 12 15 17 13 10 12 18 29 29 25 20 22 21 22 22 22 24 25 26 24 25 20 23 20 20 25 26 23 23 26 30 33 29 25 21 17 17 14 14
18 29 30 18 16 14 16 17 16 17 15 19 23 22 27 28 27 21 26 27 27 24 25 24 24 22 27 27 24 24 22 23 21 24 27 30 28 25 20 18 17 18 11
19 38 26 27 27 24 25 26 24 24 22 19 19 18 16 27 28 25 25 26 24 25 25 26 27 29 27 24 23 21 21 25 26 27 29 29 28 24 24 23 24 25 23
19 24 19 18 20 21 23 24 27 27 28 25 23 23 21 19 28 25 23 27 30 28 27 26 28 31 28 27 26 24 25 23 21 24 27 27 29 27 26 26 25 24 23
21 26 21 16 19 21 22 24 26 27 28 28 29 28 27 26 27 23 21 25 31 32 32 31 30 32 30 29 29 29 28 29 25 23 23 26 25 24 24 26 26 24 22
20 28 23 18 23 22 24 23 25 26 28 30 30 31 30 28 25 25 25 27 30 30 30 30 30 30 25 25 27 29 28 25 23 24 24 24 25 27 28 29 27 25 24
15 17 21 23 24 24 24 24 23 24 25 25 25 24 24 24 25 26 27 28 30 31 31 31 29 29 25 26 28 30 31 28 23 24 24 24 24 26 27 25 26 25 25
15 17 17 21 23 19 19 19 20 23 23 26 27 29 27 27 26 26 26 26 29 31 30 31 26 26 28 29 28 29 29 28 23 24 22 24 26 27 27 26 26 25 25
16 15 14 14 16 18 18 17 18 20 21 19 21 23 24 26 28 29 29 29 28 28 30 25 26 28 28 27 26 25 23 22 21 21 23 25 25 26 26 25 23 23 23
14 13 13 14 14 14 16 16 17 16 15 15 17 17 18 19 20 23 27 26 27 27 24 23 24 24 24 24 23 23 23 22 21 21 23 23 22 21 21 19 20 20 19
10 11 11 10 10 11 12 13 14 16 17 16 16 17 16 17 18 18 17 17 17 16 16 18 17 17 19 19 20 21 20 19 19 19 18 15 16 15 15 17 18 17 19
11 11 11 11 11 11 13 14 15 14 13 13 13 13 15 15 15 15 15 14 14 14 14 14 14 14 15 15 16 17 17 17 16 15 14 15 15 15 15 15 15 17 19
11 12 12 11 10 11 11 12 14 13 12 12 12 13 14 14 14 15 15 15 15 15 14 14 14 14 14 14 15 15 15 15 15 14 14 14 14 14 16 16 15 16 17
12 13 14 12 12 11 11 11 11 12 13 12 13 13 13 12 12 12 12 13 14 14 14 14 14 15 14 14 14 15 16 15 14 14 13 13 14 15 15 15 15 15 16
10 10 11 12 11 10 10 11 12 12 12 12 14 13 13 12 12 12 13 14 14 14 13 13 14 14 14 15 14 15 14 14 14 14 14 14 13 13 14 15 15 16 15
9 10 9 10 11 11 11 10 10 10 10 11 11 12 11 12 13 12 12 13 14 13 13 13 12 12 13 14 14 13 13 13 13 13 13 13 13 14 15 15 15 16 15
9 10 10 10 9 10 10 11 10 9 9 9 9 11 10 11 12 11 11 12 12 13 13 14 14 14 14 14 13 13 13 13 12 12 12 12 13 14 14 15 15 14 14
10 9 8 8 7 8 10 11 10 10 11 10 11 13 13 14 12 12 12 13 13 13 13 14 14 14 13 13 13 12 12 12 12 13 13 13 14 14 15 16 17 15 18
10 10 10 10 10 10 11 11 11 12 12 11 12 13 12 14 13 13 13 12 12 13 12 13 12 12 12 12 12 11 12 12 13 13 13 13 14 14 15 16 17 18 18
17 16 15 12 11 11 9 11 11 12 11 12 10 11 12 12 13 13 13 12 13 12 12 12 12 12 13 12 12 12 12 12 13 13 13 14 14 15 15 16 17 18 18
16 17 16 16 15 14 12 11 13 16 19 13 12 13 13 13 13 13 14 12 12 12 11 12 13 13 12 12 11 11 12 13 13 13 14 14 15 16 16 17 17 19 20
13 11 11 10 9 9 8 8 10 10 9 11 13 11 11 11 11 11 10 11 11 12 12 13 13 13 12 11 10 12 11 12 14 15 13 15 16 16 16 17 18 20 19
13 7 8 8 9 8 8 6 5 7 9 7 8 10 12 12 13 12 12 11 10 10 12 12 12 12 11 10 9 8 9 9 10 12 16 15 15 15 16 16 19 18 22
Wind_Direction
201 218 227 204 199 207 257 260 258 253 271 283 274 274 273 268 280 283 274 263 295 293 280 278 289 302 298 285 287 284 300 319 219 1 323 335 332 324 330 336 6 3 8
240 248 253 259 234 187 208 260 258 260 260 266 283 277 275 273 277 278 275 273 287 289 292 278 290 298 318 318 308 295 286 286 305 310 288 277 327 335 340 341 343 355 10
244 251 258 250 261 266 235 258 265 263 260 260 282 279 274 277 282 285 284 285 285 281 289 287 290 305 300 304 302 290 296 322 336 336 316 268 323 336 334 340 344 349 341
257 248 254 249 257 265 268 266 261 268 273 262 263 270 280 280 283 283 285 288 288 289 292 296 291 306 304 310 313 307 305 311 314 309 299 284 303 317 325 329 332 336 338
250 249 251 256 260 265 270 271 272 274 274 276 272 272 270 271 274 285 280 281 282 290 290 294 296 302 296 301 306 309 311 313 316 313 310 304 311 316 324 327 327 330 331
252 236 252 255 258 264 267 267 270 271 274 276 276 275 277 273 273 279 281 281 286 288 291 293 293 293 300 304 306 308 305 305 306 306 306 308 310 316 319 320 320 319 322
253 249 249 257 262 266 269 271 271 271 271 274 274 275 276 280 278 283 284 281 281 287 290 293 294 291 300 302 306 307 306 306 306 306 307 308 308 312 317 317 319 320 320
263 260 256 267 267 269 274 275 277 277 274 274 274 275 276 280 282 285 285 285 282 285 287 290 292 293 297 300 302 305 306 306 311 314 314 312 314 317 317 318 317 319 320
279 281 273 280 269 275 275 281 282 284 281 279 279 278 278 281 287 288 288 287 286 287 289 292 293 296 300 304 305 304 305 308 312 312 314 316 317 317 316 314 313 312 313
313 302 291 283 280 277 280 281 287 286 287 288 290 287 287 287 290 290 292 290 288 288 290 293 297 298 301 302 303 303 303 305 306 309 313 316 320 322 321 320 315 314 314
327 332 322 286 284 294 292 293 291 292 294 291 289 286 290 288 290 294 295 294 293 294 293 294 296 302 301 301 301 302 304 309 310 311 312 315 319 321 321 322 321 318 314
329 333 327 323 297 295 295 298 301 302 300 308 301 302 297 291 290 290 290 293 294 295 297 300 301 302 302 303 306 309 312 314 313 313 313 313 316 319 322 327 332 334 330
340 348 342 325 319 313 299 306 308 313 322 323 316 316 315 315 312 303 295 298 300 293 297 303 306 307 309 308 309 309 317 311 312 314 311 316 323 324 324 332 339 349 351
349 350 360 4 1 345 344 338 323 309 305 317 311 313 322 324 326 325 325 328 323 332 326 316 314 318 320 324 323 323 326 324 321 322 324 333 341 347 345 338 340 345 348
333 347 350 347 346 348 350 347 346 351 355 343 357 357 339 347 360 357 9 10 17 9 7 1 2 356 342 347 345 344 348 348 348 351 351 349 350 353 353 356 353 349 344
319 325 338 347 351 344 348 345 343 353 354 360 4 10 6 15 22 24 29 36 35 29 25 17 14 15 17 9 5 8 8 9 9 6 1 2 357 352 351 354 354 349 350
314 316 320 332 332 336 338 339 342 342 341 348 354 358 1 11 15 14 11 9 7 5 359 357 354 353 355 358 359 1 354 2 9 8 6 7 0 356 356 357 356 355 354
336 337 330 329 336 343 341 337 336 332 333 334 339 345 351 359 359 359 358 357 357 357 359 355 355 355 354 355 359 359 3 7 7 5 3 3 3 4 1 357 358 356 358
345 341 349 352 346 341 345 349 348 346 341 344 356 354 359 357 355 356 1 358 353 359 3 3 6 9 6 3 3 6 8 8 9 9 7 8 7 5 2 4 6 2 360
2 339 339 347 348 347 347 347 356 3 7 14 19 9 14 12 9 14 16 9 9 8 4 3 2 2 5 8 13 16 14 15 16 15 14 14 12 6 3 2 359 1 1
28 23 13 9 24 350 335 337 347 354 358 359 357 348 344 348 2 5 8 8 10 11 8 7 9 10 13 17 20 21 21 19 18 13 10 8 4 1 359 357 353 355 349
40 40 69 43 15 359 341 337 335 333 338 343 354 357 357 349 2 2 3 8 9 4 15 11 16 21 20 19 19 19 16 12 10 7 4 2 2 360 356 354 350 348 346
131 117 110 72 54 355 21 354 354 346 352 350 5 14 11 4 2 3 3 2 3 3 5 5 6 6 7 8 11 8 7 8 7 6 4 1 358 356 356 352 352 350 348
120 135 123 124 125 111 96 24 346 316 294 335 346 343 349 351 354 358 355 3 3 3 4 2 357 355 360 1 8 10 13 13 13 10 3 360 358 358 353 353 353 351 349
142 109 113 103 84 96 59 52 12 13 22 4 345 352 356 360 1 2 7 2 357 355 356 352 351 352 350 360 8 11 23 16 7 3 10 3 355 357 353 352 353 350 351
150 96 112 114 120 127 129 105 75 22 8 3 359 352 348 345 344 345 345 347 352 355 355 353 351 347 351 353 358 13 15 10 3 359 354 354 351 349 347 346 345 345 343